QPF
0.00 0.00 0.00 0.00 0.00 0.00 0.00 0.00 0.00 0.00 0.00 0.00 0.00 0.00 0.00 0.00 0.00 0.00 0.00 0.00 0.00 0.00
0.00 0.00 0.00 0.00 0.00 0.00 0.00 0.00 0.00 0.00 0.00 0.00 0.00 0.00 0.00 0.00 0.00 0.00 0.00 0.00 0.00 0.00
0.00 0.00 0.00 0.00 0.00 0.00 0.00 0.00 0.00 0.00 0.00 0.00 0.00 0.00 0.00 0.00 0.00 0.00 0.00 0.00 0.00 0.00
0.00 0.00 0.00 0.00 0.00 0.00 0.00 0.00 0.00 0.00 0.00 0.00 0.00 0.00 0.00 0.00 0.00 0.00 0.00 0.00 0.00 0.00
0.00 0.00 0.00 0.00 0.00 0.00 0.00 0.00 0.00 0.00 0.00 0.00 0.00 0.00 0.00 0.00 0.00 0.00 0.00 0.00 0.00 0.00
0.00 0.00 0.00 0.00 0.00 0.00 0.00 0.00 0.00 0.00 0.00 0.00 0.00 0.00 0.00 0.00 0.00 0.00 0.00 0.00 0.00 0.00
0.00 0.00 0.00 0.00 0.00 0.00 0.00 0.00 0.00 0.00 0.00 0.00 0.00 0.00 0.00 0.00 0.00 0.00 0.00 0.00 0.00 0.00
0.00 0.00 0.00 0.00 0.00 0.00 0.00 0.00 0.00 0.00 0.00 0.00 0.00 0.00 0.00 0.00 0.00 0.00 0.00 0.00 0.00 0.00
0.00 0.00 0.00 0.00 0.00 0.00 0.00 0.00 0.00 0.00 0.00 0.00 0.00 0.00 0.00 0.00 0.00 0.00 0.00 0.00 0.00 0.00
0.00 0.00 0.00 0.00 0.00 0.00 0.00 0.00 0.00 0.00 0.00 0.00 0.00 0.00 0.00 0.00 0.00 0.00 0.00 0.00 0.00 0.00
0.00 0.00 0.00 0.00 0.00 0.00 0.00 0.00 0.00 0.00 0.00 0.00 0.00 0.00 0.00 0.00 0.00 0.00 0.00 0.00 0.00 0.00
0.00 0.00 0.00 0.00 0.00 0.00 0.00 0.00 0.00 0.00 0.00 0.00 0.00 0.00 0.00 0.00 0.00 0.00 0.00 0.00 0.00 0.00
0.00 0.00 0.00 0.00 0.00 0.00 0.00 0.00 0.00 0.00 0.00 0.00 0.00 0.00 0.00 0.00 0.00 0.00 0.00 0.00 0.00 0.00
0.00 0.00 0.00 0.00 0.00 0.00 0.00 0.00 0.00 0.00 0.00 0.00 0.00 0.00 0.00 0.00 0.00 0.00 0.00 0.00 0.00 0.00
MSLP
1015.73 1016.28 1016.81 1017.39 1017.73 1018.23 1018.71 1018.91 1018.93 1019.10 1019.10 1019.17 1019.13 1019.16 1019.25 1019.36 1019.32 1019.25 1019.15 1019.08 1019.05 1019.08
1015.93 1016.61 1017.10 1017.64 1017.94 1018.16 1018.79 1019.01 1018.88 1019.08 1019.27 1019.26 1019.32 1019.44 1019.48 1019.65 1019.62 1019.56 1019.51 1019.54 1019.45 1019.42
1016.11 1016.71 1017.09 1017.57 1018.05 1018.33 1018.71 1019.03 1018.95 1019.27 1019.49 1019.55 1019.43 1019.61 1019.83 1019.89 1019.76 1019.76 1019.82 1019.83 1019.77 1019.65
1016.41 1016.83 1017.06 1017.45 1017.94 1017.88 1018.43 1018.99 1019.16 1019.34 1019.58 1019.81 1019.64 1019.70 1019.75 1019.91 1019.97 1020.02 1020.09 1020.01 1019.97 1019.84
1016.15 1017.22 1017.26 1017.43 1017.53 1017.83 1018.15 1018.68 1019.09 1019.29 1019.42 1019.83 1020.02 1019.76 1019.85 1020.05 1020.10 1020.17 1020.35 1020.24 1020.11 1019.96
1016.06 1016.99 1017.43 1017.50 1017.69 1017.81 1018.19 1018.63 1019.08 1019.22 1019.45 1019.53 1020.18 1019.95 1020.10 1020.25 1020.31 1020.26 1020.33 1020.33 1020.30 1020.06
1015.82 1016.55 1017.23 1017.53 1017.94 1018.16 1018.37 1018.79 1019.15 1019.39 1019.34 1019.46 1019.87 1020.05 1020.02 1020.13 1020.26 1020.35 1020.20 1020.35 1020.30 1019.86
1015.76 1016.38 1017.43 1018.02 1018.29 1018.71 1018.87 1019.29 1019.54 1019.64 1019.71 1019.72 1019.95 1020.01 1019.91 1019.97 1020.01 1020.10 1019.96 1020.00 1020.03 1019.64
1015.88 1016.42 1017.55 1018.65 1019.28 1019.78 1019.71 1019.59 1019.60 1019.96 1020.23 1020.12 1020.03 1019.70 1019.73 1019.74 1019.89 1019.84 1019.82 1019.71 1019.47 1019.17
1016.23 1017.47 1018.17 1018.56 1018.94 1019.71 1020.61 1020.55 1020.24 1020.08 1020.35 1020.39 1020.02 1019.91 1019.75 1019.60 1019.50 1019.45 1019.29 1019.33 1019.16 1018.95
1017.50 1018.31 1018.77 1018.95 1019.49 1019.57 1020.52 1020.90 1021.03 1020.79 1020.36 1020.27 1020.19 1019.81 1019.65 1019.54 1019.19 1018.83 1018.75 1018.42 1018.38 1018.66
1017.71 1018.56 1019.51 1019.17 1019.24 1019.62 1020.01 1020.73 1021.04 1020.76 1020.36 1020.12 1019.79 1019.55 1019.36 1018.95 1019.08 1018.45 1018.18 1018.00 1017.84 1018.21
1019.15 1019.18 1020.00 1020.27 1019.79 1020.11 1020.40 1020.95 1021.41 1020.45 1020.33 1020.07 1019.63 1019.29 1018.67 1018.37 1018.51 1018.15 1018.03 1017.83 1017.57 1017.73
1019.07 1019.10 1019.96 1021.33 1020.05 1020.59 1021.13 1020.72 1020.67 1020.61 1019.99 1019.47 1019.36 1018.97 1018.56 1018.25 1017.96 1017.64 1017.63 1017.50 1017.39 1017.39
Thickness
5703 5695 5687 5680 5675 5667 5659 5654 5651 5647 5644 5641 5638 5636 5633 5632 5630 5628 5628 5626 5624 5621
5691 5683 5677 5671 5665 5660 5653 5647 5644 5639 5636 5633 5629 5626 5623 5619 5618 5617 5616 5614 5612 5610
5681 5674 5667 5663 5657 5651 5645 5637 5637 5631 5626 5623 5621 5617 5613 5610 5610 5607 5604 5602 5600 5598
5667 5662 5657 5653 5650 5647 5639 5630 5626 5623 5618 5614 5614 5611 5608 5604 5601 5598 5594 5592 5589 5588
5656 5646 5645 5645 5642 5639 5633 5625 5618 5616 5613 5606 5601 5602 5598 5594 5591 5587 5583 5581 5578 5576
5648 5639 5634 5634 5631 5630 5623 5616 5609 5608 5605 5603 5591 5591 5587 5583 5580 5577 5573 5568 5566 5564
5641 5633 5627 5624 5619 5613 5611 5606 5600 5596 5595 5592 5585 5581 5578 5574 5569 5564 5561 5555 5553 5553
5631 5627 5615 5609 5604 5599 5597 5591 5586 5583 5579 5576 5571 5568 5565 5561 5557 5553 5549 5544 5540 5541
5620 5614 5603 5590 5582 5577 5576 5576 5575 5568 5561 5560 5557 5557 5555 5550 5543 5539 5534 5531 5529 5529
5607 5594 5586 5580 5573 5565 5555 5555 5557 5556 5550 5545 5544 5541 5539 5535 5531 5526 5524 5519 5518 5516
5583 5575 5568 5565 5556 5555 5543 5538 5534 5534 5536 5531 5526 5525 5522 5518 5515 5515 5511 5512 5509 5504
5566 5557 5551 5545 5545 5542 5537 5528 5522 5520 5517 5515 5511 5508 5505 5505 5498 5501 5499 5498 5496 5491
5541 5541 5532 5521 5528 5522 5516 5509 5502 5507 5502 5498 5496 5492 5494 5491 5485 5485 5482 5480 5480 5478
5533 5528 5513 5498 5511 5503 5496 5498 5495 5490 5489 5486 5478 5477 5476 5475 5473 5472 5468 5466 5464 5462